JBU2901 KBUF-KJFK

Flight info

Callsign JBU2901
Flight time N/A
Altitude 31000
Route GEE BEEPS MEMMS PUCKY1
Aircraft A320/M-SDE3FGHIRWY/LB1

Departure

Time N/A
Airport Buffalo Niagara International Airport (KBUF)

Arrival

Time 2026-05-05 21:35
Airport John F. Kennedy International Airport (KJFK)
Time Latitude Longitude Altitude Speed Heading
2026-05-05 21:25 40.75675 -73.35684 5479 ft 260 kts 30°
2026-05-05 21:25 40.77221 -73.34455 5251 ft 252 kts 13°
2026-05-05 21:26 40.78856 -73.34225 5143 ft 224 kts 338°
2026-05-05 21:26 40.80139 -73.35087 5018 ft 197 kts 302°
2026-05-05 21:26 40.80770 -73.36584 4900 ft 183 kts 280°
2026-05-05 21:26 40.81069 -73.38199 4773 ft 179 kts 270°
2026-05-05 21:27 40.81182 -73.39810 4651 ft 178 kts 268°
2026-05-05 21:27 40.81262 -73.41446 4525 ft 178 kts 267°
2026-05-05 21:27 40.81338 -73.43083 4395 ft 178 kts 267°
2026-05-05 21:27 40.81413 -73.44715 4267 ft 178 kts 267°
2026-05-05 21:28 40.81420 -73.46338 4141 ft 176 kts 263°
2026-05-05 21:28 40.81378 -73.47936 4021 ft 176 kts 262°
2026-05-05 21:28 40.81328 -73.49545 3892 ft 174 kts 262°
2026-05-05 21:28 40.81278 -73.51143 3759 ft 174 kts 262°
2026-05-05 21:29 40.81230 -73.52745 3635 ft 174 kts 262°
2026-05-05 21:29 40.81183 -73.54347 3511 ft 175 kts 262°
2026-05-05 21:29 40.81138 -73.55950 3388 ft 175 kts 262°
2026-05-05 21:29 40.81095 -73.57558 3266 ft 175 kts 262°
2026-05-05 21:30 40.81056 -73.59156 3149 ft 175 kts 262°
2026-05-05 21:30 40.81006 -73.60756 3064 ft 172 kts 256°
2026-05-05 21:30 40.80647 -73.62219 2975 ft 166 kts 237°
2026-05-05 21:30 40.79902 -73.63381 2989 ft 167 kts 219°
2026-05-05 21:31 40.78919 -73.64195 2995 ft 170 kts 213°
2026-05-05 21:31 40.77924 -73.64976 2936 ft 161 kts 212°
2026-05-05 21:31 40.76968 -73.65727 2769 ft 160 kts 214°
2026-05-05 21:31 40.76008 -73.66482 2571 ft 160 kts 213°
2026-05-05 21:32 40.75054 -73.67230 2375 ft 158 kts 214°
2026-05-05 21:32 40.74115 -73.67968 2169 ft 157 kts 213°
2026-05-05 21:32 40.73173 -73.68707 1966 ft 158 kts 213°
2026-05-05 21:32 40.72224 -73.69452 1760 ft 159 kts 212°
2026-05-05 21:33 40.71268 -73.70202 1550 ft 161 kts 211°
2026-05-05 21:33 40.70331 -73.70936 1335 ft 149 kts 210°
2026-05-05 21:33 40.69466 -73.71615 1141 ft 144 kts 210°
2026-05-05 21:33 40.68616 -73.72280 968 ft 140 kts 209°
2026-05-05 21:34 40.67795 -73.72926 768 ft 137 kts 208°
2026-05-05 21:34 40.66992 -73.73561 564 ft 133 kts 207°
2026-05-05 21:34 40.66188 -73.74184 420 ft 134 kts 207°
2026-05-05 21:34 40.65392 -73.74802 270 ft 134 kts 207°
2026-05-05 21:35 40.64605 -73.75423 97 ft 132 kts 207°
2026-05-05 21:35 40.63861 -73.76002 20 ft 107 kts 211°
2026-05-05 21:35 40.63378 -73.76387 22 ft 54 kts 216°
2026-05-05 21:35 40.63234 -73.76662 20 ft 27 kts 259°
2026-05-05 21:36 40.63312 -73.76885 21 ft 27 kts 300°
2026-05-05 21:36 40.63412 -73.77107 24 ft 29 kts 301°
2026-05-05 21:36 40.63516 -73.77336 23 ft 30 kts 300°
2026-05-05 21:36 40.63620 -73.77558 21 ft 21 kts 306°
2026-05-05 21:37 40.63702 -73.77554 19 ft 15 kts 32°
2026-05-05 21:37 40.63802 -73.77473 18 ft 18 kts 30°
2026-05-05 21:37 40.63913 -73.77393 21 ft 19 kts 28°
2026-05-05 21:37 40.64031 -73.77299 22 ft 21 kts 32°
2026-05-05 21:38 40.64153 -73.77203 26 ft 21 kts 31°
2026-05-05 21:38 40.64286 -73.77096 23 ft 24 kts 31°
2026-05-05 21:38 40.64427 -73.76990 20 ft 19 kts
2026-05-05 21:38 40.64560 -73.76991 19 ft 19 kts
2026-05-05 21:39 40.64687 -73.76995 23 ft 17 kts 328°
2026-05-05 21:39 40.64783 -73.77077 23 ft 14 kts 329°
2026-05-05 21:39 40.64820 -73.77186 24 ft 14 kts 296°
2026-05-05 21:39 40.64861 -73.77303 24 ft 9 kts 280°
2026-05-05 21:40 40.64819 -73.77339 23 ft 8 kts 207°
2026-05-05 21:40 40.64762 -73.77378 24 ft 10 kts 207°
2026-05-05 21:40 40.64705 -73.77342 23 ft 11 kts 126°
2026-05-05 21:40 40.64675 -73.77286 25 ft 2 kts 125°
2026-05-05 21:41 40.64668 -73.77285 25 ft 1 kts 175°
2026-05-05 21:41 40.64661 -73.77293 23 ft 2 kts 218°
2026-05-05 21:41 40.64638 -73.77301 23 ft 5 kts 189°
2026-05-05 21:41 40.64624 -73.77304 23 ft 0 kts 190°